Home   Weather   Drummondville   Past weeks

Flag for Canada Past Weather in Drummondville, Quebec, Canada — Yesterday and Last 2 Weeks

Now
26 °F

Chilly.


Feels Like: 19 °F
Forecast: 22 / 29 °F
Wind: 7 mph from East

Location: Nicolet

Current Time: Jan 17, 2017 at 12:37:54 pm

Latest Report: Jan 17, 2017 at 12:00 pm


Visibility: N/A

Pressure: 30.26 "Hg

Humidity: 59%

Dew Point: 14 °F

Location of DrummondvilleLocation

Past Weather in Drummondville — Graph

°F

Drummondville Temperature Yesterday

Maximum temperature yesterday: 33 °F (at 5:00 pm)
Minimum temperature yesterday: 8 °F (at 4:00 am)
Average temperature yesterday: 23 °F

High & Low Weather Summary for the Past Weeks

 TemperatureHumidityPressure
High40 °F (Jan 11, 10:00 am)100% (Jan 3, 10:00 pm)30.78 "Hg (Jan 3, 10:00 pm)
Low-15 °F (Jan 9, 8:00 am)44% (Jan 13, 3:00 pm)29.23 "Hg (Jan 4, 7:00 pm)
Average16 °F78%30.13 "Hg
* Reported Jan 2 11:00 am — Jan 17 11:00 am, Drummondville, Weather by CustomWeather, © 2017

Note: Actual official high and low records may vary slightly from our data, if they occured in-between our weather recording intervals... More about our weather records

Advertising

Drummondville Weather History for the Previous 24 Hours

Scroll right to see more
 ConditionsComfort  
Time TempWeatherWind HumidityBarometerVisibility
11:00 am
Tue, Jan 17
26 °FChilly.7 mph61%30.27 "HgN/A
10:00 am26 °FChilly.6 mph59%30.29 "HgN/A
9:00 am26 °FChilly.7 mph63%30.29 "HgN/A
8:00 am25 °FCold.6 mph65%30.29 "HgN/A
7:00 am26 °FChilly.8 mph64%30.27 "HgN/A
6:00 am28 °FChilly.7 mph64%30.25 "HgN/A
5:00 am30 °FChilly.2 mph76%30.22 "HgN/A
4:00 am28 °FChilly.No wind90%30.21 "HgN/A
3:00 am29 °FChilly.1 mph87%30.20 "HgN/A
2:00 am29 °FChilly.5 mph88%30.18 "HgN/A
1:00 am30 °FChilly.3 mph87%30.18 "HgN/A
12:00 am30 °FChilly.5 mph85%30.16 "HgN/A
11:00 pm
Mon, Jan 16
30 °FChilly.6 mph83%30.16 "HgN/A
10:00 pm31 °FChilly.2 mph82%30.15 "HgN/A
9:00 pm32 °FChilly.9 mph75%30.14 "HgN/A
8:00 pm30 °FChilly.9 mph79%30.15 "HgN/A
7:00 pm28 °FChilly.2 mph80%30.14 "HgN/A
6:00 pm30 °FChilly.8 mph75%30.13 "HgN/A
5:00 pm33 °FChilly.8 mph68%30.11 "HgN/A
4:00 pm32 °FChilly.12 mph72%30.09 "HgN/A
3:00 pm32 °FChilly.18 mph72%30.08 "HgN/A
2:00 pm32 °FChilly.18 mph69%30.06 "HgN/A
1:00 pm31 °FChilly.20 mph71%30.08 "HgN/A
12:00 pm30 °FChilly.21 mph75%30.11 "HgN/A
Weather by CustomWeather, © 2017

See weather overviewHow to use our weather pages